Location: Kra?nica
(53.4833°N, 14.6167°E)
Time: 20:08:08
(UTC+00:00)

SL-16 R/B - Pass Details

Date: 23 May 2024
Orbit: 842 x 845 km, 71.0° (Epoch: 20 June)

Event Time Altitude Azimuth Distance (km) Brightness Sun altitude
Rises 01:34:59 0° 323° (NW) 3,417 5.6 -8.5°
Reaches altitude 10° 01:37:41 10° 313° (NW) 2,478 4.7 -8.3°
Maximum altitude 01:42:34 31° 254° (WSW) 1,462 3.0 -7.8°
Drops below altitude 10° 01:47:26 10° 195° (SSW) 2,463 4.1 -7.4°
Enters shadow 01:49:08 - 188° (S) 3,043 4.6 -7.2°
